Location: Newark
(43.4306°N, 0.3089°E)
Time: 22:08:59
(UTC+00:00)

Courier 1B - All Passes

Search period start: 21 August 2019 00:00
Search period end: 31 August 2019 00:00
Orbit: 962 x 1209 km, 28.3° (Epoch: 21 August)

Date Brightness Start Highest point End Pass type
(mag) Time Alt. Az. Time Alt. Az. Time Alt. Az.
21 Aug - 18:13:58 10° SSW 18:18:02 17° SSE 18:22:02 10° SE daylight
21 Aug - 20:06:20 10° SW 20:10:59 21° S 20:15:35 10° SE visible
21 Aug - 22:00:28 10° SW 22:03:53 15° SSW 22:07:20 10° SSE visible
22 Aug - 17:20:58 10° SSW 17:24:34 15° SSE 17:28:05 10° SE daylight
22 Aug - 19:12:48 10° SW 19:17:30 21° S 19:22:08 10° SE visible
22 Aug - 21:06:27 10° SW 21:10:26 17° SSW 21:14:25 10° SSE visible
23 Aug - 16:28:16 10° S 16:31:05 13° SSE 16:33:51 10° SE daylight
23 Aug - 18:19:20 10° SW 18:24:01 20° S 18:28:36 10° SE daylight
23 Aug - 20:12:36 10° SW 20:16:59 19° S 20:21:20 10° SSE visible
24 Aug - 15:36:34 10° SSE 15:37:36 10° SSE 15:38:38 10° SSE daylight
24 Aug - 17:25:56 10° SW 17:30:31 19° S 17:34:59 10° SE daylight
24 Aug - 19:18:50 10° SW 19:23:31 20° S 19:28:06 10° SE visible
24 Aug - 21:13:42 10° SW 21:16:22 13° SSW 21:19:02 10° S visible
25 Aug - 16:32:39 10° SSW 16:37:01 18° SSE 16:41:15 10° SE daylight
25 Aug - 18:25:07 10° SW 18:30:02 21° S 18:34:47 10° SE daylight
25 Aug - 20:19:19 10° SW 20:22:56 15° SSW 20:26:31 10° SSE visible
26 Aug - 15:39:32 10° SSW 15:43:30 16° SSE 15:47:21 10° SE daylight
26 Aug - 17:31:29 10° SW 17:36:31 22° S 17:41:22 10° SE daylight
26 Aug - 19:25:13 10° SW 19:29:29 18° SSW 19:33:40 10° SSE visible
27 Aug - 14:46:43 10° S 14:49:58 13° SSE 14:53:09 10° SE daylight
27 Aug - 16:37:55 10° SW 16:42:59 21° S 16:47:52 10° SE daylight
27 Aug - 18:31:16 10° SW 18:36:00 20° S 18:40:36 10° SE daylight
27 Aug - 20:27:23 10° SW 20:28:49 11° SSW 20:30:15 10° S visible
28 Aug - 13:54:38 10° S 13:56:26 11° SSE 13:58:13 10° SE daylight
28 Aug - 15:44:26 10° SW 15:49:26 20° S 15:54:15 10° SE daylight
28 Aug - 17:37:25 10° SW 17:42:30 22° S 17:47:24 10° SE daylight
28 Aug - 19:32:13 10° SW 19:35:24 14° SSW 19:38:31 10° S visible
29 Aug - 14:51:05 10° SSW 14:55:52 19° SSE 15:00:30 10° SE daylight
29 Aug - 16:43:38 10° SW 16:48:58 23° S 16:54:05 10° SE daylight
29 Aug - 18:37:50 10° SW 18:41:57 17° SSW 18:45:57 10° SSE daylight
30 Aug - 13:57:55 10° SSW 14:02:18 16° SSE 14:06:33 10° SE daylight
30 Aug - 15:49:55 10° SW 15:55:24 23° S 16:00:39 10° SE daylight
30 Aug - 17:43:41 10° SW 17:48:27 19° SSW 17:53:03 10° SSE daylight
